Location: Unnamed
(48.8836°N, 1.0859°W)
Time: 13:49:11
(UTC+02:00)

ISS - Pass Details

Date: 01 October 2021
Orbit: 417 x 423 km, 51.6° (Epoch: 16 October)

Event Time Altitude Azimuth Distance (km) Brightness Sun altitude
Rises 20:11:48 0° 288° (WNW) 2,365 1.9 -5.6°
Reaches altitude 10° 20:13:55 10° 291° (WNW) 1,500 0.5 -5.9°
Maximum altitude 20:17:16 68° 15° (NNE) 455 -3.6 -6.5°
Drops below altitude 10° 20:20:37 10° 99° (E) 1,500 -1.6 -7.0°
Enters shadow 20:20:46 - 99° (E) 1,560 -1.5 -7.1°
